GW7140 Weather Reports


Display with metric or nautical units.
time (UTC)temp
F
wind
direction
speed
MPH
gust
MPH
rain 1hr
in
rain 24hr
in
rain mn
in
humidity
%
barometer
mb
20260508035326 60 47 0.0 0.0 0.00 0.00 0.68 97
20260508035019 60 46 0.0 0.0 0.00 0.00 0.68 97
20260508034723 60 46 0.0 0.0 0.00 0.00 0.68 97
20260508034427 60 46 0.0 1.0 0.00 0.00 0.68 97
20260508034120 60 46 0.0 0.0 0.00 0.00 0.68 97
20260508033825 60 46 1.0 1.0 0.00 0.00 0.68 97
20260508033527 60 46 0.0 1.0 0.00 0.00 0.68 97
20260508033220 61 46 0.0 0.0 0.00 0.00 0.68 97
20260508032923 61 46 0.0 0.0 0.00 0.00 0.68 97
20260508032628 61 46 0.0 0.0 0.00 0.00 0.68 97
20260508032321 62 46 0.0 0.0 0.00 0.00 0.68 97
20260508032025 62 46 0.0 1.0 0.00 0.00 0.68 97
20260508031728 62 47 0.0 0.0 0.00 0.00 0.68 97
20260508031419 62 46 0.0 1.0 0.00 0.00 0.68 97
20260508031122 62 46 0.0 1.0 0.00 0.00 0.68 97
20260508030837 63 47 0.0 0.0 0.00 0.00 0.68 97
20260508030826 63 46 0.0 0.0 0.00 0.00 0.68 97
20260508030519 63 47 0.0 0.0 0.00 0.00 0.68 97
20260508030224 63 46 0.0 0.0 0.00 0.00 0.68 97
20260508025927 63 46 0.0 0.0 0.00 0.00 0.68 97
20260508025627 63 46 0.0 0.0 0.00 0.00 0.68 97
20260508025326 63 47 0.0 0.0 0.00 0.00 0.68 97
20260508025021 63 47 0.0 0.0 0.00 0.00 0.68 97
20260508024725 63 46 0.0 0.0 0.00 0.00 0.68 97
20260508024428 63 46 0.0 0.0 0.00 0.00 0.68 97
20260508024121 63 47 0.0 0.0 0.00 0.00 0.68 97
20260508023825 63 47 0.0 0.0 0.00 0.00 0.68 97
20260508023530 63 46 0.0 0.0 0.00 0.00 0.68 97
20260508023226 63 47 0.0 0.0 0.00 0.00 0.68 97
20260508022920 63 47 0.0 0.0 0.00 0.00 0.68 97
20260508022621 63 47 0.0 0.0 0.00 0.00 0.68 97
20260508022324 63 47 0.0 0.0 0.00 0.00 0.68 97
20260508022022 63 47 0.0 0.0 0.00 0.00 0.68 97
20260508021723 63 47 0.0 0.0 0.00 0.00 0.68 97
20260508021456 64 44 0.0 0.0 0.00 0.00 0.68 97
20260508021135 64 43 0.0 0.0 0.00 0.00 0.68 97
20260508020831 64 43 0.0 1.0 0.00 0.00 0.68 97
20260508020527 64 43 0.0 0.0 0.00 0.00 0.68 97
20260508015935 64 27 1.0 1.0 0.00 0.00 0.68 97
20260508015630 64 5 1.0 1.0 0.00 0.00 0.68 97
20260508015321 64 340 0.0 0.0 0.00 0.00 0.68 97
20260508015021 64 340 0.0 1.0 0.00 0.00 0.68 97
20260508014730 64 338 0.0 1.0 0.00 0.00 0.68 97
20260508014422 64 337 0.0 0.0 0.00 0.00 0.68 97
20260508014130 64 337 0.0 0.0 0.00 0.00 0.68 97
20260508013846 64 337 0.0 0.0 0.00 0.00 0.68 97
20260508013524 64 337 0.0 1.0 0.00 0.00 0.68 97
20260508013227 64 336 0.0 0.0 0.00 0.00 0.68 97
20260508012930 64 335 0.0 1.0 0.00 0.00 0.68 97
20260508012626 64 321 0.0 0.0 0.00 0.00 0.68 97
20260508012330 64 319 0.0 0.0 0.00 0.00 0.68 97
20260508012031 64 300 0.0 1.0 0.00 0.00 0.68 97
20260508011722 64 297 1.0 1.0 0.00 0.00 0.68 97
20260508011423 64 295 1.0 2.0 0.00 0.00 0.68 97
20260508011126 64 283 0.0 0.0 0.00 0.00 0.68 97
20260508010834 64 283 0.0 0.0 0.00 0.00 0.68 97
20260508010522 64 283 0.0 0.0 0.00 0.00 0.68 97
20260508010225 64 283 0.0 0.0 0.00 0.00 0.68 97
20260508005928 65 283 0.0 1.0 0.00 0.00 0.68 97
20260508005630 65 82 0.0 0.0 0.00 0.00 0.68 97
20260508005332 65 82 0.0 0.0 0.00 0.00 0.68 97
20260508004730 65 81 0.0 0.0 0.00 0.00 0.68 97
20260508004434 65 82 0.0 1.0 0.00 0.00 0.68 97
20260508004133 65 80 0.0 0.0 0.00 0.00 0.68 97
20260508003826 65 79 1.0 2.0 0.00 0.00 0.68 97
20260508003529 65 98 3.0 4.0 0.00 0.00 0.67 97
20260508003226 65 112 1.0 1.0 0.00 0.00 0.66 97
20260508002928 65 111 1.0 1.0 0.00 0.00 0.65 97
20260508002632 65 128 0.0 1.0 0.00 0.00 0.64 97
20260508002331 65 128 0.0 0.0 0.00 0.00 0.62 97
20260508002032 65 128 0.0 0.0 0.00 0.00 0.60 97
20260508001726 65 128 0.0 0.0 0.00 0.00 0.57 97
20260508001428 66 128 0.0 0.0 0.00 0.00 0.54 97
20260508001132 66 128 0.0 0.0 0.00 0.00 0.51 97
20260508000829 65 128 0.0 0.0 0.00 0.00 0.50 97
20260508000235 65 128 0.0 0.0 0.00 0.00 0.50 97
20260507235926 66 128 0.0 1.0 0.00 0.00 0.49 97
20260507235632 66 120 0.0 2.0 0.00 0.00 0.48 97
20260507235330 65 243 1.0 1.0 0.00 0.00 0.45 97
20260507235031 65 242 0.0 0.0 0.00 0.00 0.42 97
20260507234728 65 242 0.0 0.0 0.00 0.00 0.39 97
20260507234442 65 242 1.0 1.0 0.00 0.00 0.38 97
20260507234130 65 244 0.0 1.0 0.00 0.00 0.38 97
20260507233837 65 242 0.0 1.0 0.00 0.00 0.38 97
20260507233528 65 242 0.0 1.0 0.00 0.00 0.38 97
20260507233244 65 243 0.0 1.0 0.00 0.00 0.38 97
20260507232934 65 243 0.0 1.0 0.00 0.00 0.38 97
20260507232625 65 244 1.0 2.0 0.00 0.00 0.38 96
20260507232037 65 110 1.0 2.0 0.00 0.00 0.38 97
20260507231737 65 76 0.0 1.0 0.00 0.00 0.38 97
20260507231434 65 75 0.0 0.0 0.00 0.00 0.38 97
20260507231135 65 75 0.0 0.0 0.00 0.00 0.38 97
20260507230834 65 75 0.0 0.0 0.00 0.00 0.38 96
20260507230536 65 75 0.0 0.0 0.00 0.00 0.38 97
20260507230248 65 75 0.0 0.0 0.00 0.00 0.38 96
20260507225935 65 75 0.0 1.0 0.00 0.00 0.38 96
20260507225635 65 75 0.0 0.0 0.00 0.00 0.38 96
20260507225335 65 75 0.0 0.0 0.00 0.00 0.38 96
20260507225034 65 75 0.0 0.0 0.00 0.00 0.38 96
20260507224734 65 75 0.0 0.0 0.00 0.00 0.38 96
20260507224427 65 75 0.0 2.0 0.00 0.00 0.38 96
20260507223833 65 67 1.0 1.0 0.00 0.00 0.38 96
20260507223528 65 66 1.0 1.0 0.00 0.00 0.38 96
20260507223238 65 66 0.0 0.0 0.00 0.00 0.38 96
20260507222927 65 66 0.0 1.0 0.00 0.00 0.38 96
20260507222630 65 64 0.0 1.0 0.00 0.00 0.38 96
20260507222335 65 34 2.0 1.0 0.00 0.00 0.38 96
20260507222036 65 32 0.0 1.0 0.00 0.00 0.38 96
20260507221737 65 32 1.0 1.0 0.00 0.00 0.38 96
20260507221436 65 32 1.0 2.0 0.00 0.00 0.38 96
20260507221137 65 34 1.0 1.0 0.00 0.00 0.38 96
20260507220832 65 34 2.0 2.0 0.00 0.00 0.38 96
20260507220534 65 108 0.0 1.0 0.00 0.00 0.38 96
20260507215933 65 259 0.0 1.0 0.00 0.00 0.38 96
20260507214433 65 242 1.0 1.0 0.00 0.00 0.37 96
20260507213833 65 242 2.0 3.0 0.00 0.00 0.36 96
20260507213539 65 214 2.0 2.0 0.00 0.00 0.36 96
20260507213232 65 236 1.0 1.0 0.00 0.00 0.36 96
20260507212939 64 236 1.0 1.0 0.00 0.00 0.36 96
20260507212633 65 234 1.0 2.0 0.00 0.00 0.36 96
20260507212329 65 234 1.0 2.0 0.00 0.00 0.36 96
20260507212028 65 134 0.0 1.0 0.00 0.00 0.36 96
20260507211731 65 134 0.0 2.0 0.00 0.00 0.36 96
20260507211438 65 50 2.0 2.0 0.00 0.00 0.36 96
20260507211132 66 123 0.0 2.0 0.00 0.00 0.36 96
20260507210837 66 124 1.0 1.0 0.00 0.00 0.36 96
20260507210545 66 124 1.0 1.0 0.00 0.00 0.36 96
20260507210237 65 126 2.0 2.0 0.00 0.00 0.36 96
20260507205933 66 114 1.0 2.0 0.00 0.00 0.36 96
20260507205336 66 114 2.0 3.0 0.00 0.00 0.36 96
20260507205038 66 141 1.0 1.0 0.00 0.00 0.36 96
20260507204738 66 219 1.0 2.0 0.00 0.00 0.36 96
20260507204439 66 94 1.0 2.0 0.00 0.00 0.36 96
20260507204135 65 68 1.0 2.0 0.00 0.00 0.36 96
20260507203846 64 216 1.0 2.0 0.00 0.00 0.36 96
20260507203539 64 137 2.0 3.0 0.00 0.00 0.36 96
20260507203239 64 139 2.0 3.0 0.00 0.00 0.36 96
20260507202933 65 104 3.0 7.0 0.00 0.00 0.36 96
20260507202629 65 95 4.0 4.0 0.00 0.00 0.36 96
20260507202341 66 151 4.0 6.0 0.00 0.00 0.36 96
20260507202031 65 139 3.0 4.0 0.00 0.00 0.36 96
20260507201751 65 108 0.0 2.0 0.00 0.00 0.36 96
20260507201436 65 306 2.0 3.0 0.00 0.00 0.36 96
20260507201140 66 80 2.0 3.0 0.00 0.00 0.36 96
20260507200836 65 91 2.0 7.0 0.00 0.00 0.36 96
20260507200533 65 101 5.0 6.0 0.00 0.00 0.36 96
20260507200245 66 118 6.0 7.0 0.00 0.00 0.35 96
20260507195930 65 69 2.0 3.0 0.00 0.00 0.32 96
20260507195638 65 350 1.0 3.0 0.00 0.00 0.31 96
20260507195038 65 72 1.0 1.0 0.00 0.00 0.30 96
20260507194739 66 80 0.0 1.0 0.00 0.00 0.29 96
20260507194437 66 81 1.0 2.0 0.00 0.00 0.27 96
20260507194139 66 48 1.0 9.0 0.00 0.00 0.24 96
20260507193834 66 39 1.0 2.0 0.00 0.00 0.20 96
20260507193533 66 134 1.0 3.0 0.00 0.00 0.16 96
20260507193240 66 82 1.0 3.0 0.00 0.00 0.10 96
20260507192931 66 125 2.0 2.0 0.00 0.00 0.08 96
20260507192638 66 93 0.0 1.0 0.00 0.00 0.08 96
20260507192330 67 93 0.0 2.0 0.00 0.00 0.07 96
20260507192054 66 98 1.0 2.0 0.00 0.00 0.03 96
20260507191745 65 101 0.0 1.0 0.00 0.00 0.02 96
20260507191440 66 101 0.0 1.0 0.00 0.00 0.02 96
20260507191154 66 101 0.0 2.0 0.00 0.00 0.01 96
20260507190838 66 118 2.0 4.0 0.00 0.00 0.01 96
20260507190543 66 51 2.0 3.0 0.00 0.00 0.01 96
20260507190231 65 48 4.0 4.0 0.00 0.00 0.01 96
20260507185942 65 157 6.0 9.0 0.00 0.00 0.01 96
20260507185640 65 160 4.0 6.0 0.00 0.00 0.01 96
20260507185340 65 133 2.0 7.0 0.00 0.00 0.01 96
20260507185033 65 155 5.0 7.0 0.00 0.00 0.01 96
20260507184742 65 127 2.0 2.0 0.00 0.00 0.01 96
20260507184436 66 78 2.0 3.0 0.00 0.00 0.00 95
20260507184134 66 268 4.0 8.0 0.00 0.00 0.00 95
20260507183834 66 119 1.0 3.0 0.00 0.00 0.00 95
20260507183541 66 288 6.0 7.0 0.00 0.00 0.00 95
20260507183244 66 140 0.0 4.0 0.00 0.00 0.00 95
20260507182944 65 76 2.0 3.0 0.00 0.00 0.00 95
20260507182637 65 264 2.0 3.0 0.00 0.00 0.00 95
20260507182341 66 295 2.0 3.0 0.00 0.00 0.00 95
20260507182040 65 115 2.0 3.0 0.00 0.00 0.00 95
20260507181740 65 63 1.0 6.0 0.00 0.00 0.00 95
20260507181457 65 90 4.0 8.0 0.00 0.00 0.00 95
20260507181142 66 92 2.0 6.0 0.00 0.00 0.00 95
20260507180838 65 79 2.0 2.0 0.00 0.00 0.00 95
20260507180727 65 80 1.0 3.0 0.00 0.00 0.00 95
20260507180543 65 76 2.0 4.0 0.00 0.00 0.00 94
20260507180240 65 57 1.0 2.0 0.00 0.00 0.00 94
20260507175943 66 90 1.0 4.0 0.00 0.00 0.00 94
20260507175701 66 132 0.0 1.0 0.00 0.00 0.00 95
20260507175636 66 132 1.0 1.0 0.00 0.00 0.00 95
20260507175252 66 85 1.0 9.0 0.00 0.00 0.00 94
20260507175139 66 64 7.0 9.0 0.00 0.00 0.00 94
20260507175038 67 334 2.0 7.0 0.00 0.00 0.00 94
20260507174738 67 101 1.0 2.0 0.00 0.00 0.00 94
20260507174440 67 289 2.0 3.0 0.00 0.00 0.00 94
20260507174145 67 276 3.0 3.0 0.00 0.00 0.00 93
20260507173835 67 330 3.0 4.0 0.00 0.00 0.00 93
20260507173537 68 359 5.0 6.0 0.00 0.00 0.00 92
20260507173235 68 157 1.0 4.0 0.00 0.00 0.00 91
20260507172942 68 321 0.0 4.0 0.00 0.00 0.00 90
20260507172918 68 318 1.0 4.0 0.00 0.00 0.00 90
20260507172635 67 82 1.0 2.0 0.00 0.00 0.00 91
20260507172338 68 80 3.0 3.0 0.00 0.00 0.00 91
20260507172038 67 95 4.0 6.0 0.00 0.00 0.00 90
20260507171756 69 16 2.0 6.0 0.00 0.00 0.00 89
20260507171444 70 122 1.0 2.0 0.00 0.00 0.00 89
20260507171140 68 102 1.0 2.0 0.00 0.00 0.00 91
20260507170843 68 340 2.0 4.0 0.00 0.00 0.00 90
20260507170542 69 91 2.0 4.0 0.00 0.00 0.00 88
20260507170240 69 107 2.0 2.0 0.00 0.00 0.00 87
20260507165635 69 354 1.0 1.0 0.00 0.00 0.00 88
20260507165345 68 354 0.0 1.0 0.00 0.00 0.00 89
20260507165046 69 22 1.0 2.0 0.00 0.00 0.00 88
20260507164741 70 64 0.0 1.0 0.00 0.00 0.00 87
20260507164446 72 61 2.0 4.0 0.00 0.00 0.00 84
20260507164139 70 57 1.0 2.0 0.00 0.00 0.00 83
20260507163839 71 289 3.0 7.0 0.00 0.00 0.00 78
20260507163543 69 186 1.0 3.0 0.00 0.00 0.00 84
20260507163241 71 183 4.0 6.0 0.00 0.00 0.00 80
20260507162948 73 110 3.0 6.0 0.00 0.00 0.00 80
20260507162644 74 105 0.0 3.0 0.00 0.00 0.00 78
20260507162336 71 90 1.0 1.0 0.00 0.00 0.00 73
20260507162037 70 84 1.0 2.0 0.00 0.00 0.00 79
20260507161747 69 84 1.0 2.0 0.00 0.00 0.00 84
20260507161438 69 98 2.0 3.0 0.00 0.00 0.00 87
20260507161137 68 266 2.0 3.0 0.00 0.00 0.00 80
20260507160848 69 246 1.0 6.0 0.00 0.00 0.00 82
20260507160544 71 123 3.0 7.0 0.00 0.00 0.00 82
20260507160237 70 182 3.0 3.0 0.00 0.00 0.00 82
20260507160009 68 127 4.0 4.0 0.00 0.00 0.00 80
20260507155344 68 67 2.0 4.0 0.00 0.00 0.00 86
20260507155036 69 152 1.0 8.0 0.00 0.00 0.00 84
20260507154739 70 57 1.0 2.0 0.00 0.00 0.00 84
20260507154444 70 154 2.0 3.0 0.00 0.00 0.00 85
20260507154145 71 85 2.0 3.0 0.00 0.00 0.00 83
20260507153838 71 61 0.0 6.0 0.00 0.00 0.00 83
20260507153543 69 123 1.0 3.0 0.00 0.00 0.00 81
20260507153236 70 133 2.0 6.0 0.00 0.00 0.00 79
20260507152942 70 186 1.0 4.0 0.00 0.00 0.00 79
20260507152646 70 118 3.0 4.0 0.00 0.00 0.00 81
20260507152339 70 88 2.0 6.0 0.00 0.00 0.00 82
20260507152042 68 146 2.0 3.0 0.00 0.00 0.00 84
20260507151747 69 195 4.0 4.0 0.00 0.00 0.00 82
20260507151439 70 93 1.0 3.0 0.00 0.00 0.00 79
20260507151143 68 174 1.0 2.0 0.00 0.00 0.00 85
20260507150837 68 145 3.0 4.0 0.00 0.00 0.00 82
20260507150546 68 118 2.0 2.0 0.00 0.00 0.00 81
20260507150248 68 134 1.0 1.0 0.00 0.00 0.00 82
20260507150004 69 106 2.0 4.0 0.00 0.00 0.00 84
20260507145340 69 157 2.0 4.0 0.00 0.00 0.00 83
20260507145046 67 154 0.0 2.0 0.00 0.00 0.00 86
20260507144739 68 113 3.0 7.0 0.00 0.00 0.00 84
20260507144443 69 116 2.0 4.0 0.00 0.00 0.00 85
20260507144145 68 115 1.0 2.0 0.00 0.00 0.00 82
20260507143839 68 123 1.0 3.0 0.00 0.00 0.00 81
20260507143543 66 97 1.0 1.0 0.00 0.00 0.00 84
20260507143248 67 90 2.0 2.0 0.00 0.00 0.00 86
20260507142942 68 139 1.0 1.0 0.00 0.00 0.00 82
20260507142645 70 133 2.0 3.0 0.00 0.00 0.00 78
20260507142349 70 50 2.0 3.0 0.00 0.00 0.00 82
20260507142042 67 285 2.0 3.0 0.00 0.00 0.00 80
20260507141740 67 234 2.0 4.0 0.00 0.00 0.00 77
20260507141445 67 189 1.0 3.0 0.00 0.00 0.00 85
20260507141148 67 102 1.0 4.0 0.00 0.00 0.00 83
20260507140848 68 148 6.0 8.0 0.00 0.00 0.00 82
20260507140543 68 237 2.0 4.0 0.00 0.00 0.00 81
20260507140249 68 134 2.0 4.0 0.00 0.00 0.00 82
20260507140002 68 94 3.0 6.0 0.00 0.00 0.00 81
20260507135341 69 237 1.0 3.0 0.00 0.00 0.00 82
20260507135046 68 129 1.0 3.0 0.00 0.00 0.00 81
20260507134740 68 135 1.0 2.0 0.00 0.00 0.00 82
20260507134444 68 131 3.0 4.0 0.00 0.00 0.00 83
20260507134147 66 82 0.0 3.0 0.00 0.00 0.00 85
20260507133840 66 166 3.0 4.0 0.00 0.00 0.00 85
20260507133546 67 150 2.0 7.0 0.00 0.00 0.00 84
20260507133240 67 76 2.0 3.0 0.00 0.00 0.00 84
20260507132945 67 151 1.0 3.0 0.00 0.00 0.00 82
20260507132648 67 30 2.0 3.0 0.00 0.00 0.00 85
20260507132343 67 141 2.0 6.0 0.00 0.00 0.00 84
20260507132048 67 73 3.0 3.0 0.00 0.00 0.00 85
20260507131741 67 116 2.0 3.0 0.00 0.00 0.00 85
20260507131446 66 72 4.0 6.0 0.00 0.00 0.00 85
20260507131150 66 260 4.0 8.0 0.00 0.00 0.00 84
20260507130844 67 104 3.0 6.0 0.00 0.00 0.00 87
20260507130548 66 65 3.0 4.0 0.00 0.00 0.00 87
20260507130241 66 171 6.0 12.0 0.00 0.00 0.00 87
20260507130009 66 147 9.0 10.0 0.00 0.00 0.00 86
20260507125348 66 183 5.0 8.0 0.00 0.00 0.00 85
20260507125043 65 106 6.0 9.0 0.00 0.00 0.00 88
20260507124747 65 131 5.0 9.0 0.00 0.00 0.00 89
20260507124451 64 321 4.0 7.0 0.00 0.00 0.00 91
20260507124144 65 142 4.0 8.0 0.00 0.00 0.00 89
20260507123848 65 123 4.0 14.0 0.00 0.00 0.00 90
20260507123552 65 103 3.0 8.0 0.00 0.00 0.00 89
20260507123243 63 126 2.0 3.0 0.00 0.00 0.00 92
20260507122947 64 153 6.0 8.0 0.00 0.00 0.00 92
20260507122652 65 120 5.0 11.0 0.00 0.00 0.00 91
20260507122346 65 107 3.0 9.0 0.00 0.00 0.00 91
20260507122051 66 125 4.0 7.0 0.00 0.00 0.00 89
20260507121745 67 124 2.0 4.0 0.00 0.00 0.00 86
20260507121449 65 88 2.0 4.0 0.00 0.00 0.00 89
20260507121143 65 97 2.0 7.0 0.00 0.00 0.00 88
20260507120844 65 102 4.0 9.0 0.00 0.00 0.00 89
20260507120549 65 104 5.0 9.0 0.00 0.00 0.00 88
20260507120243 65 213 12.0 14.0 0.00 0.00 0.00 87
20260507120006 66 70 6.0 11.0 0.00 0.00 0.00 87
20260507115348 65 212 5.0 12.0 0.00 0.00 0.00 86
20260507115052 65 118 3.0 9.0 0.00 0.00 0.00 87
20260507114746 65 119 5.0 12.0 0.00 0.00 0.00 86
20260507114450 66 107 5.0 10.0 0.00 0.00 0.00 85
20260507114144 66 66 4.0 8.0 0.00 0.00 0.00 85
20260507113848 66 114 2.0 10.0 0.00 0.00 0.00 85
20260507113552 65 88 5.0 9.0 0.00 0.00 0.00 84
20260507113246 65 130 3.0 9.0 0.00 0.00 0.00 85
20260507112949 66 125 6.0 11.0 0.00 0.00 0.00 83
20260507112644 66 128 7.0 8.0 0.00 0.00 0.00 84
20260507112350 66 120 4.0 8.0 0.00 0.00 0.00 85
20260507112043 66 124 2.0 4.0 0.00 0.00 0.00 84
20260507111748 66 120 3.0 11.0 0.00 0.00 0.00 83
20260507111453 66 136 2.0 4.0 0.00 0.00 0.00 84
20260507111145 66 104 3.0 6.0 0.00 0.00 0.00 85
20260507110850 65 133 6.0 7.0 0.00 0.00 0.00 85
20260507110544 65 109 7.0 8.0 0.00 0.00 0.00 86
20260507110247 65 104 5.0 9.0 0.00 0.00 0.00 87
20260507110003 65 124 4.0 8.0 0.00 0.00 0.00 88
20260507105351 64 109 2.0 3.0 0.00 0.00 0.00 89
20260507105045 64 116 3.0 3.0 0.00 0.00 0.00 89
20260507104750 64 108 2.0 3.0 0.00 0.00 0.00 89
20260507104453 64 113 4.0 7.0 0.00 0.00 0.00 90
20260507104144 63 104 2.0 2.0 0.00 0.00 0.00 91
20260507103847 63 104 2.0 3.0 0.00 0.00 0.00 91
20260507103546 63 144 3.0 4.0 0.00 0.00 0.00 92
20260507103246 63 113 3.0 6.0 0.00 0.00 0.00 94
20260507102949 62 111 3.0 6.0 0.00 0.00 0.00 94
20260507102645 62 118 3.0 3.0 0.00 0.00 0.00 94
20260507102347 62 115 4.0 6.0 0.00 0.00 0.00 94
20260507102051 62 133 1.0 3.0 0.00 0.00 0.00 94
20260507101745 62 136 3.0 6.0 0.00 0.00 0.00 93
20260507101450 63 108 4.0 6.0 0.00 0.00 0.00 92
20260507101155 63 125 2.0 9.0 0.00 0.00 0.00 90
20260507100849 63 104 6.0 11.0 0.00 0.00 0.00 90
20260507100551 63 123 3.0 7.0 0.00 0.00 0.00 89
20260507100245 63 106 5.0 8.0 0.00 0.00 0.00 89
20260507100011 63 158 11.0 15.0 0.00 0.00 0.00 89
20260507095354 63 117 6.0 8.0 0.00 0.00 0.00 91
20260507095048 63 120 4.0 10.0 0.00 0.00 0.00 91
20260507094751 63 123 4.0 6.0 0.00 0.00 0.00 91
20260507094456 63 142 6.0 8.0 0.00 0.00 0.00 93
20260507094149 63 122 3.0 6.0 0.00 0.00 0.00 93
20260507093854 63 130 2.0 3.0 0.00 0.00 0.00 92
20260507093549 63 124 4.0 6.0 0.00 0.00 0.00 92
20260507093252 63 138 8.0 11.0 0.00 0.00 0.00 92
20260507092954 63 126 3.0 6.0 0.00 0.00 0.00 92
20260507092653 63 152 2.0 6.0 0.00 0.00 0.00 92
20260507092355 63 116 2.0 4.0 0.00 0.00 0.00 91
20260507092048 63 112 3.0 7.0 0.00 0.00 0.00 92
20260507091752 63 116 2.0 6.0 0.00 0.00 0.00 93
20260507091455 62 107 1.0 4.0 0.00 0.00 0.00 94
20260507091148 62 146 1.0 7.0 0.00 0.00 0.00 95
20260507090853 62 114 4.0 4.0 0.00 0.00 0.00 95
20260507090556 62 125 2.0 4.0 0.00 0.00 0.00 95
20260507090248 62 143 3.0 4.0 0.00 0.00 0.00 95
20260507090005 62 121 3.0 8.0 0.00 0.00 0.00 95
20260507085353 62 135 3.0 3.0 0.00 0.00 0.00 95
20260507085058 62 122 2.0 4.0 0.00 0.00 0.00 95
20260507084758 63 121 3.0 9.0 0.00 0.00 0.00 95
20260507084456 63 113 2.0 4.0 0.00 0.00 0.00 95
20260507084158 62 101 5.0 7.0 0.00 0.00 0.00 95
20260507083852 62 137 3.0 8.0 0.00 0.00 0.00 95
20260507083557 62 146 2.0 7.0 0.00 0.00 0.00 95
20260507083251 62 111 4.0 4.0 0.00 0.00 0.00 95
20260507082952 62 129 2.0 4.0 0.00 0.00 0.00 95
20260507082656 62 113 2.0 4.0 0.00 0.00 0.00 95
20260507082349 62 130 3.0 3.0 0.00 0.00 0.00 95
20260507082058 62 149 1.0 7.0 0.00 0.00 0.00 95
20260507081749 62 123 2.0 9.0 0.00 0.00 0.00 95
20260507081453 63 117 1.0 4.0 0.00 0.00 0.00 95
20260507081150 63 135 5.0 8.0 0.00 0.00 0.00 95
20260507080851 62 163 3.0 6.0 0.00 0.00 0.00 95
20260507080556 63 163 7.0 10.0 0.00 0.00 0.00 95
20260507080250 63 106 1.0 4.0 0.00 0.00 0.00 95
20260507080005 62 161 4.0 12.0 0.00 0.00 0.00 95
20260507075349 63 136 2.0 4.0 0.00 0.00 0.00 95
20260507075054 63 115 2.0 2.0 0.00 0.00 0.00 95
20260507074758 63 116 3.0 6.0 0.00 0.00 0.00 95
20260507074452 62 122 4.0 6.0 0.00 0.00 0.00 95
20260507074157 62 128 3.0 6.0 0.00 0.00 0.00 95
20260507073850 62 151 4.0 10.0 0.00 0.00 0.00 95
20260507073554 62 114 6.0 11.0 0.00 0.00 0.00 95
20260507073258 62 84 4.0 4.0 0.00 0.00 0.00 95
20260507072951 62 136 3.0 4.0 0.00 0.00 0.00 95
20260507072656 62 140 3.0 6.0 0.00 0.00 0.00 94
20260507072350 62 108 3.0 4.0 0.00 0.00 0.00 94
20260507072057 62 117 2.0 6.0 0.00 0.00 0.00 94
20260507071758 62 124 4.0 4.0 0.00 0.00 0.00 93
20260507071457 62 104 3.0 6.0 0.00 0.00 0.00 92
20260507071150 63 123 1.0 3.0 0.00 0.00 0.00 91
20260507070900 63 114 4.0 6.0 0.00 0.00 0.00 89
20260507070554 63 106 2.0 8.0 0.00 0.00 0.00 89
20260507070256 63 115 4.0 7.0 0.00 0.00 0.00 89
20260507070001 63 121 3.0 4.0 0.00 0.00 0.00 88
20260507065354 63 130 4.0 6.0 0.00 0.00 0.00 85
20260507065054 63 128 4.0 6.0 0.00 0.00 0.00 85
20260507064759 63 124 4.0 6.0 0.00 0.00 0.00 85
20260507064451 63 111 5.0 7.0 0.00 0.00 0.00 85
20260507064200 63 131 3.0 6.0 0.00 0.00 0.00 85
20260507063853 63 113 3.0 9.0 0.00 0.00 0.00 85
20260507063559 63 135 2.0 8.0 0.00 0.00 0.00 85
20260507063254 63 126 2.0 7.0 0.00 0.00 0.00 85
20260507062959 63 126 3.0 4.0 0.00 0.00 0.00 84
20260507062652 63 141 4.0 6.0 0.00 0.00 0.00 85
20260507062356 64 128 2.0 3.0 0.00 0.00 0.00 85
20260507062100 64 154 4.0 10.0 0.00 0.00 0.00 85
20260507061801 64 104 4.0 6.0 0.00 0.00 0.00 87
20260507061452 63 101 3.0 4.0 0.00 0.00 0.00 89
20260507061156 63 117 3.0 4.0 0.00 0.00 0.00 89
20260507060900 63 124 3.0 4.0 0.00 0.00 0.00 88
20260507060555 63 144 2.0 3.0 0.00 0.00 0.00 87
20260507060253 63 142 2.0 6.0 0.00 0.00 0.00 86
20260507060004 63 210 1.0 4.0 0.00 0.00 0.00 85
20260507055358 64 111 3.0 3.0 0.00 0.00 0.00 84
20260507055052 64 138 2.0 6.0 0.00 0.00 0.00 82
20260507054754 64 135 2.0 7.0 0.00 0.00 0.00 83
20260507054500 64 118 3.0 6.0 0.00 0.00 0.00 83
20260507054153 64 122 4.0 4.0 0.00 0.00 0.00 83
20260507053857 64 106 3.0 3.0 0.00 0.00 0.00 83
20260507053603 64 128 4.0 8.0 0.00 0.00 0.00 82
20260507053257 64 155 4.0 4.0 0.00 0.00 0.00 83
20260507053001 64 137 3.0 4.0 0.00 0.00 0.00 83
20260507052654 64 115 3.0 4.0 0.00 0.00 0.00 81
20260507052358 64 127 3.0 6.0 0.00 0.00 0.00 80
20260507052059 64 128 2.0 4.0 0.00 0.00 0.00 80
20260507051759 64 124 2.0 4.0 0.00 0.00 0.00 81
20260507051459 64 116 3.0 4.0 0.00 0.00 0.00 81
20260507051154 64 129 2.0 7.0 0.00 0.00 0.00 81
20260507050859 64 139 2.0 7.0 0.00 0.00 0.00 81
20260507050603 64 131 3.0 6.0 0.00 0.00 0.00 81
20260507050257 64 111 3.0 6.0 0.00 0.00 0.00 81
20260507050002 64 152 3.0 4.0 0.00 0.00 0.00 81
20260507045403 64 103 4.0 4.0 0.00 0.00 0.00 82
20260507045056 64 136 2.0 3.0 0.00 0.00 0.00 83
20260507044757 64 121 1.0 1.0 0.00 0.00 0.00 82
20260507044502 64 118 2.0 2.0 0.00 0.00 0.00 81
20260507044156 64 120 1.0 2.0 0.00 0.00 0.00 81
20260507043901 64 117 2.0 2.0 0.00 0.00 0.00 81
20260507043604 63 120 1.0 1.0 0.00 0.00 0.00 82
20260507043257 63 118 1.0 2.0 0.00 0.00 0.00 82
20260507043004 64 124 1.0 2.0 0.00 0.00 0.00 82
20260507042702 64 124 1.0 2.0 0.00 0.00 0.00 82
20260507042357 63 113 1.0 2.0 0.00 0.00 0.00 83
20260507042100 63 110 1.0 2.0 0.00 0.00 0.00 84
20260507041759 63 107 1.0 1.0 0.00 0.00 0.00 85
20260507041502 63 106 0.0 1.0 0.00 0.00 0.00 86
20260507041154 63 108 1.0 2.0 0.00 0.00 0.00 86
20260507040858 63 107 1.0 1.0 0.00 0.00 0.00 86
20260507040602 63 107 0.0 1.0 0.00 0.00 0.00 87
20260507040255 63 107 1.0 1.0 0.00 0.00 0.00 86
20260507040010 63 113 0.0 1.0 0.00 0.00 0.00 86